JUGNU

Last updated on Sun Aug 09 2026 00:03:15 GMT+0000 (Coordinated Universal Time)

1 37839U 11058B 26220.60260910 .00000362 00000+0 49338-4 0 9992 2 37839 19.9620 349.9801 0018527 295.7396 161.8416 14.13789556766451
UTC large
Height (km)
Speed (km/s)
/
Latitude / Longitude
Inclination (degrees)
Orbital Period (minutes)
Azimuth
Elevation
Range (km)
Doppler Factor

Next 0 passes for location: London (51.5072 / 0.1276)

No passes found over London.
JUGNU